Volver al catálogo

HULIANWANG DIGUI-177

ActivoCienciaLEO
NORAD 69580·PAYLOAD·🇨🇳 China

Lanzado Jun 17, 2026 desde Wenchang Space Launch Site

Loading…

Próximos Pases (próximas 24 horas)

TLE

ActualizadoSource: Space-Track

Época: Sep 14, 2026, 18:52 UTC

1 69580U 26137J   26257.78657990 -.00000091  00000-0  71062-4 0  9991
2 69580  49.9977 274.1886 0000171 331.1831  28.9032 13.29325873 12268

Sigue HULIANWANG DIGUI-177 en tiempo real con AllMySat

Download on the App Store